STARLINK-34883

Last updated on Tue Sep 16 2025 00:02:07 GMT+0000 (Coordinated Universal Time)

1 65426U 25192Y 25258.58341435 -.01487720 00000+0 -15689-1 0 9997 2 65426 53.1593 338.0609 0001042 69.9714 186.5600 15.66418683 3628
UTC large
Height (km)
Speed (km/s)
/
Latitude / Longitude
Inclination (degrees)
Orbital Period (minutes)
Azimuth
Elevation
Range (km)
Doppler Factor

Next 0 passes for location: London (51.5072 / 0.1276)

Sorry there are no passes over London.